M I D A S
Marine Information and Data Acquisition System
Tripno 877 of the Zeeleeuw from 2005-04-05 07:01:00 to 2005-04-05 10:52:00
Back to CruiseResearch ActivitiesStationsMapUnderway DataData graphs

EquipmentUnitsComments
TimeDGPSUTC
LatitudeDGPSDM.mWGS84
LongitudeDGPSDM.mWGS84
SpeedMeteo Stationm/sRelative wind speed
DirectionMeteo StationdegRelative wind direction
TemperatureMeteo Stationdeg CelciusAir temperature
PressureMeteo StationPaAtmospheric pressure
HumidityMeteo Station%Relative humidity
Missing or incorrect values are displayed as -999
Metereological data collected by the RV Zeeleeuw from 2005-04-05 07:01:10 to 2005-04-05 10:52:35
                                                                                    Next 1000 lines
Time Latitude Longitude Speed Direction Temperature Pressure Humidity
2005-04-05 07:01:21 51°13.597 2°56.09 3.8 191 7.7 102490 81
2005-04-05 07:01:25 51°13.598 2°56.085 3.2 186 7.7 102490 81
2005-04-05 07:01:31 51°13.6 2°56.079 3.2 186 7.7 102490 81
2005-04-05 07:01:36 51°13.602 2°56.073 3.1 186 7.7 102490 81
2005-04-05 07:01:41 51°13.604 2°56.067 3.6 199 7.7 102490 81
2005-04-05 07:01:45 51°13.606 2°56.061 6.2 176 7.8 102490 81
2005-04-05 07:01:51 51°13.608 2°56.052 5.3 174 7.8 102490 81
2005-04-05 07:01:55 51°13.61 2°56.046 6.1 176 7.8 102490 82
2005-04-05 07:02:01 51°13.613 2°56.038 6.2 176 7.8 102490 82
2005-04-05 07:02:06 51°13.616 2°56.03 6.1 175 7.9 102490 82
2005-04-05 07:02:11 51°13.618 2°56.022 5.1 181 7.9 102490 82
2005-04-05 07:02:16 51°13.621 2°56.013 4.8 183 7.9 102490 81
2005-04-05 07:02:21 51°13.623 2°56.006 6 174 7.9 102490 81
2005-04-05 07:02:26 51°13.626 2°55.997 5.8 175 7.9 102490 81
2005-04-05 07:02:31 51°13.63 2°55.987 6.3 162 7.9 102490 81
2005-04-05 07:02:36 51°13.632 2°55.979 5.8 164 7.9 102500 80
2005-04-05 07:02:41 51°13.636 2°55.969 4.3 182 7.9 102500 80
2005-04-05 07:02:45 51°13.639 2°55.961 7 160 7.8 102490 80
2005-04-05 07:02:51 51°13.643 2°55.95 6 173 7.8 102490 80
2005-04-05 07:02:55 51°13.645 2°55.943 6.1 174 7.8 102490 80
2005-04-05 07:03:01 51°13.649 2°55.932 6 179 7.8 102490 80
2005-04-05 07:03:05 51°13.652 2°55.923 5.7 165 7.8 102490 80
2005-04-05 07:03:11 51°13.655 2°55.912 4.7 180 7.8 102490 80
2005-04-05 07:03:15 51°13.658 2°55.904 5.8 182 7.8 102490 80
2005-04-05 07:03:21 51°13.661 2°55.892 5 181 7.8 102490 80
2005-04-05 07:03:26 51°13.664 2°55.882 5.9 188 7.8 102490 80
2005-04-05 07:03:31 51°13.666 2°55.872 4.4 198 7.8 102490 80
2005-04-05 07:03:35 51°13.667 2°55.869 3.9 185 7.7 102490 80
2005-04-05 07:03:41 51°13.67 2°55.853 6.7 173 7.7 102490 80
2005-04-05 07:03:45 51°13.672 2°55.844 6.2 175 7.8 102490 80
2005-04-05 07:03:51 51°13.674 2°55.832 6 171 7.8 102490 80
2005-04-05 07:03:55 51°13.675 2°55.824 4.2 185 7.8 102490 81
2005-04-05 07:04:01 51°13.677 2°55.814 4.9 201 7.8 102490 81
2005-04-05 07:04:06 51°13.678 2°55.804 5.5 205 7.8 102490 80
2005-04-05 07:04:11 51°13.679 2°55.794 4.4 208 7.8 102490 80
2005-04-05 07:04:16 51°13.68 2°55.785 4.1 194 7.8 102490 80
2005-04-05 07:04:21 51°13.681 2°55.777 3.8 193 7.8 102490 80
2005-04-05 07:04:25 51°13.681 2°55.77 3.8 199 7.9 102500 80
2005-04-05 07:04:31 51°13.682 2°55.762 3.2 192 7.9 102500 80
2005-04-05 07:04:35 51°13.682 2°55.758 3 191 7.9 102500 80
2005-04-05 07:04:40 51°13.682 2°55.754 3 211 7.9 102500 80
2005-04-05 07:04:45 51°13.683 2°55.752 1.6 190 7.9 102500 80
2005-04-05 07:04:51 51°13.683 2°55.751 1.7 202 7.9 102500 80
2005-04-05 07:04:55 51°13.684 2°55.752 2.7 228 7.9 102500 80
2005-04-05 07:05:01 51°13.685 2°55.753 2.9 238 7.9 102500 80
2005-04-05 07:05:05 51°13.686 2°55.755 2.5 222 7.9 102500 81
2005-04-05 07:05:11 51°13.689 2°55.758 2.6 234 7.9 102500 81
2005-04-05 07:05:15 51°13.692 2°55.76 3.2 250 7.9 102500 80
2005-04-05 07:05:21 51°13.695 2°55.762 2.6 259 7.9 102500 80
2005-04-05 07:05:25 51°13.698 2°55.763 4 266 8 102500 80
2005-04-05 07:05:31 51°13.704 2°55.765 2.3 272 8 102500 80
2005-04-05 07:05:35 51°13.707 2°55.764 2.5 292 8 102500 80
2005-04-05 07:05:39 51°13.712 2°55.764 4.1 307 8 102500 80
2005-04-05 07:05:45 51°13.717 2°55.762 4.1 228 8 102500 80
2005-04-05 07:05:50 51°13.723 2°55.758 3.9 326 8 102500 80
2005-04-05 07:05:55 51°13.728 2°55.754 3.2 321 8 102500 80
2005-04-05 07:06:00 51°13.732 2°55.749 2.9 337 8 102500 80
2005-04-05 07:06:05 51°13.736 2°55.744 3.2 353 8 102500 79
2005-04-05 07:06:11 51°13.741 2°55.737 2.9 333 8 102500 79
2005-04-05 07:06:15 51°13.745 2°55.732 3.5 332 8 102500 79
2005-04-05 07:06:20 51°13.749 2°55.727 3.5 328 8 102500 79
2005-04-05 07:06:25 51°13.755 2°55.72 4.2 341 8 102490 80
2005-04-05 07:06:30 51°13.759 2°55.714 3.1 335 8 102490 80
2005-04-05 07:06:36 51°13.764 2°55.708 4.6 344 8 102500 80
2005-04-05 07:06:40 51°13.768 2°55.703 4.1 338 8 102500 80
2005-04-05 07:06:45 51°13.772 2°55.697 4.2 338 8 102500 80
2005-04-05 07:06:50 51°13.776 2°55.691 4.8 354 8 102500 80
2005-04-05 07:06:55 51°13.781 2°55.686 5.1 332 8.1 102500 80
2005-04-05 07:07:01 51°13.786 2°55.68 5.1 319 8.1 102500 80
2005-04-05 07:07:05 51°13.79 2°55.675 4.5 347 8.1 102490 80
2005-04-05 07:07:10 51°13.795 2°55.67 5.2 350 8.1 102490 80
2005-04-05 07:07:15 51°13.8 2°55.665 4.9 343 8.1 102490 79
2005-04-05 07:07:20 51°13.805 2°55.66 3.8 336 8.1 102490 79
2005-04-05 07:07:25 51°13.809 2°55.656 2.9 303 8.1 102490 79
2005-04-05 07:07:30 51°13.815 2°55.651 2.9 325 8.1 102490 79
2005-04-05 07:07:35 51°13.819 2°55.646 2.9 25 8.1 102490 79
2005-04-05 07:07:40 51°13.824 2°55.641 2.5 25 8.1 102490 79
2005-04-05 07:07:45 51°13.828 2°55.637 2 38 8.1 102500 79
2005-04-05 07:07:51 51°13.833 2°55.631 2.9 5 8.1 102500 79
2005-04-05 07:07:55 51°13.838 2°55.626 3.4 320 8.1 102490 79
2005-04-05 07:08:01 51°13.843 2°55.621 3.2 307 8.1 102490 79
2005-04-05 07:08:05 51°13.848 2°55.616 5.3 14 8.1 102490 79
2005-04-05 07:08:11 51°13.853 2°55.611 4.1 351 8.1 102490 79
2005-04-05 07:08:15 51°13.858 2°55.607 3.7 1 8.1 102500 79
2005-04-05 07:08:21 51°13.864 2°55.601 3.1 8 8.1 102500 79
2005-04-05 07:08:26 51°13.87 2°55.595 2.1 328 8.1 102490 79
2005-04-05 07:08:31 51°13.875 2°55.589 2.9 332 8.1 102490 79
2005-04-05 07:08:35 51°13.881 2°55.584 3.7 356 8.1 102490 79
2005-04-05 07:08:40 51°13.886 2°55.579 3.3 7 8.1 102490 79
2005-04-05 07:08:45 51°13.893 2°55.572 2.3 355 8.1 102490 79
2005-04-05 07:08:51 51°13.899 2°55.565 3.6 16 8.1 102490 79
2005-04-05 07:08:55 51°13.904 2°55.56 4.3 350 8.1 102490 79
2005-04-05 07:09:01 51°13.91 2°55.554 4 353 8.1 102490 79
2005-04-05 07:09:05 51°13.914 2°55.549 3.9 348 8.1 102490 79
2005-04-05 07:09:11 51°13.92 2°55.543 4.9 344 8.1 102490 79
2005-04-05 07:09:15 51°13.925 2°55.538 7 323 8.1 102490 79
2005-04-05 07:09:19 51°13.929 2°55.533 5.2 326 8.1 102490 79
2005-04-05 07:09:25 51°13.935 2°55.527 4.5 324 8.1 102490 79
2005-04-05 07:09:30 51°13.94 2°55.523 3.6 340 8.1 102490 79
2005-04-05 07:09:35 51°13.944 2°55.518 3.8 327 8.1 102490 79
2005-04-05 07:09:41 51°13.949 2°55.512 2.6 335 8.1 102490 79
2005-04-05 07:09:45 51°13.953 2°55.508 3 338 8.1 102490 79
2005-04-05 07:09:51 51°13.957 2°55.503 4 351 8.1 102490 79
2005-04-05 07:09:55 51°13.96 2°55.499 4 330 8.1 102490 79
2005-04-05 07:10:01 51°13.964 2°55.495 2.5 315 8.1 102490 79
2005-04-05 07:10:05 51°13.966 2°55.491 3.4 316 8.1 102490 79
2005-04-05 07:10:10 51°13.97 2°55.487 3.9 293 8.1 102490 79
2005-04-05 07:10:15 51°13.972 2°55.483 2.3 19 8.1 102490 79
2005-04-05 07:10:20 51°13.974 2°55.481 2.2 19 8.1 102490 79
2005-04-05 07:10:25 51°13.976 2°55.478 2.4 353 8.1 102490 79
2005-04-05 07:10:31 51°13.979 2°55.475 2.2 333 8.1 102490 79
2005-04-05 07:10:35 51°13.981 2°55.473 3.2 353 8.1 102490 79
2005-04-05 07:10:41 51°13.983 2°55.47 2.5 355 8.1 102490 79
2005-04-05 07:10:45 51°13.985 2°55.468 3 338 8.1 102490 79
2005-04-05 07:10:51 51°13.986 2°55.467 3.7 70 8.1 102490 79
2005-04-05 07:10:55 51°13.988 2°55.464 3.2 235 8.1 102500 80
2005-04-05 07:11:01 51°13.991 2°55.461 3.8 336 8.1 102500 80
2005-04-05 07:11:05 51°13.993 2°55.459 4.5 309 8.1 102490 79
2005-04-05 07:11:11 51°13.995 2°55.457 2.7 291 8.1 102490 79
2005-04-05 07:11:15 51°13.996 2°55.456 2.3 284 8.1 102490 79
2005-04-05 07:11:21 51°13.997 2°55.455 0.7 288 8.1 102490 79
2005-04-05 07:11:25 51°13.998 2°55.455 2.8 304 8.1 102490 79
2005-04-05 07:11:30 51°14 2°55.454 2.4 330 8.1 102490 79
2005-04-05 07:11:35 51°14.001 2°55.453 3.7 308 8.1 102490 79
2005-04-05 07:11:40 51°14.002 2°55.452 3.5 304 8.1 102490 79
2005-04-05 07:11:45 51°14.003 2°55.452 2.9 292 8.1 102490 79
2005-04-05 07:11:51 51°14.004 2°55.452 2.6 230 8.1 102490 79
2005-04-05 07:11:55 51°14.005 2°55.451 3.1 313 8.1 102490 79
2005-04-05 07:12:01 51°14.006 2°55.451 2.3 295 8.1 102490 79
2005-04-05 07:12:05 51°14.007 2°55.451 3.1 324 8.1 102500 79
2005-04-05 07:12:11 51°14.009 2°55.45 2.2 330 8.1 102500 79
2005-04-05 07:12:15 51°14.009 2°55.45 2.2 227 8.1 102500 79
2005-04-05 07:12:21 51°14.01 2°55.45 1.5 290 8.1 102500 79
2005-04-05 07:12:25 51°14.011 2°55.45 2.5 260 8.1 102490 79
2005-04-05 07:12:31 51°14.011 2°55.45 3 258 8.1 102490 79
2005-04-05 07:12:35 51°14.012 2°55.45 3.4 267 8.1 102490 79
2005-04-05 07:12:40 51°14.012 2°55.45 2.9 273 8.1 102490 79
2005-04-05 07:12:44 51°14.012 2°55.45 3 261 8.2 102490 79
2005-04-05 07:12:51 51°14.012 2°55.449 3.1 279 8.2 102490 79
2005-04-05 07:12:55 51°14.011 2°55.449 2.7 275 8.2 102500 79
2005-04-05 07:13:01 51°14.011 2°55.448 2.7 301 8.2 102500 79
2005-04-05 07:13:05 51°14.011 2°55.447 3.2 302 8.1 102500 79
2005-04-05 07:13:11 51°14.011 2°55.448 3 304 8.1 102500 79
2005-04-05 07:13:15 51°14.011 2°55.448 2.7 288 8.2 102500 79
2005-04-05 07:13:21 51°14.011 2°55.447 2 287 8.2 102500 79
2005-04-05 07:13:25 51°14.011 2°55.448 2.5 284 8.2 102500 79
2005-04-05 07:13:30 51°14.011 2°55.448 3.3 283 8.2 102500 79
2005-04-05 07:13:35 51°14.011 2°55.448 2.7 302 8.2 102490 79
2005-04-05 07:13:41 51°14.011 2°55.447 2.2 295 8.2 102490 79
2005-04-05 07:13:45 51°14.01 2°55.447 2.1 289 8.2 102500 79
2005-04-05 07:13:51 51°14.01 2°55.447 4.2 296 8.2 102500 79
2005-04-05 07:13:56 51°14.01 2°55.447 3.5 291 8.2 102490 79
2005-04-05 07:14:01 51°14.011 2°55.448 3.2 237 8.2 102490 79
2005-04-05 07:14:05 51°14.011 2°55.448 3 287 8.2 102500 79
2005-04-05 07:14:10 51°14.011 2°55.448 3.6 301 8.2 102500 79
2005-04-05 07:14:15 51°14.011 2°55.448 2.2 294 8.2 102500 79
2005-04-05 07:14:21 51°14.011 2°55.448 1.9 280 8.2 102500 79
2005-04-05 07:14:25 51°14.01 2°55.448 2.5 266 8.2 102500 79
2005-04-05 07:14:30 51°14.01 2°55.447 2.5 261 8.2 102500 79
2005-04-05 07:14:35 51°14.01 2°55.447 2 248 8.2 102500 79
2005-04-05 07:14:40 51°14.01 2°55.447 0.9 256 8.2 102500 79
2005-04-05 07:14:45 51°14.01 2°55.447 1.6 300 8.2 102490 79
2005-04-05 07:14:51 51°14.011 2°55.448 1.9 311 8.2 102490 79
2005-04-05 07:14:55 51°14.011 2°55.448 1.1 299 8.2 102500 79
2005-04-05 07:15:01 51°14.011 2°55.448 2.2 303 8.2 102500 79
2005-04-05 07:15:05 51°14.011 2°55.448 2.4 317 8.2 102490 79
2005-04-05 07:15:11 51°14.011 2°55.447 2.3 294 8.2 102490 79
2005-04-05 07:15:16 51°14.011 2°55.447 1.8 292 8.2 102500 79
2005-04-05 07:15:20 51°14.011 2°55.448 2.5 293 8.2 102500 79
2005-04-05 07:15:25 51°14.011 2°55.448 1.5 232 8.3 102500 79
2005-04-05 07:15:31 51°14.011 2°55.448 1.6 302 8.3 102500 79
2005-04-05 07:15:35 51°14.011 2°55.447 1.8 287 8.3 102500 79
2005-04-05 07:15:39 51°14.011 2°55.447 2 303 8.3 102500 79
2005-04-05 07:15:46 51°14.011 2°55.448 1 275 8.3 102500 79
2005-04-05 07:15:51 51°14.011 2°55.448 1.3 275 8.3 102500 79
2005-04-05 07:15:55 51°14.011 2°55.448 1.4 313 8.3 102500 79
2005-04-05 07:16:01 51°14.012 2°55.448 2.5 302 8.3 102500 79
2005-04-05 07:16:05 51°14.012 2°55.448 2.3 279 8.3 102500 79
2005-04-05 07:16:11 51°14.012 2°55.448 2.1 280 8.3 102500 79
2005-04-05 07:16:15 51°14.012 2°55.448 2.7 278 8.3 102500 79
2005-04-05 07:16:21 51°14.012 2°55.448 1.9 283 8.3 102500 79
2005-04-05 07:16:25 51°14.012 2°55.448 2 266 8.3 102500 79
2005-04-05 07:16:30 51°14.012 2°55.448 2 299 8.3 102500 79
2005-04-05 07:16:35 51°14.012 2°55.448 3.5 233 8.3 102500 79
2005-04-05 07:16:41 51°14.012 2°55.448 3 291 8.3 102500 79
2005-04-05 07:16:46 51°14.011 2°55.448 2 263 8.3 102500 79
2005-04-05 07:16:51 51°14.011 2°55.448 2.8 279 8.3 102500 79
2005-04-05 07:16:55 51°14.011 2°55.448 3.6 328 8.3 102500 79
2005-04-05 07:16:59 51°14.011 2°55.448 4 292 8.3 102500 79
2005-04-05 07:17:05 51°14.01 2°55.447 2.3 294 8.3 102490 79
2005-04-05 07:17:11 51°14.01 2°55.447 2.6 293 8.3 102490 79
2005-04-05 07:17:16 51°14.01 2°55.447 2.6 278 8.4 102490 79
2005-04-05 07:17:20 51°14.01 2°55.447 2.4 275 8.4 102490 79
2005-04-05 07:17:25 51°14.01 2°55.447 3.2 277 8.4 102500 79
2005-04-05 07:17:31 51°14.01 2°55.447 2.2 286 8.4 102500 79
2005-04-05 07:17:35 51°14.01 2°55.447 3.3 301 8.4 102500 79
2005-04-05 07:17:40 51°14.01 2°55.447 3.6 299 8.4 102500 79
2005-04-05 07:17:45 51°14.009 2°55.446 3.5 309 8.4 102500 79
2005-04-05 07:17:51 51°14.009 2°55.446 4.1 315 8.4 102500 79
2005-04-05 07:17:55 51°14.009 2°55.446 3.6 295 8.4 102490 79
2005-04-05 07:18:01 51°14.009 2°55.446 3.6 296 8.4 102490 79
2005-04-05 07:18:05 51°14.009 2°55.446 2.1 304 8.4 102500 79
2005-04-05 07:18:11 51°14.009 2°55.446 2.3 293 8.4 102500 79
2005-04-05 07:18:16 51°14.008 2°55.446 1.9 294 8.4 102500 79
2005-04-05 07:18:21 51°14.009 2°55.446 1.7 40 8.4 102500 79
2005-04-05 07:18:25 51°14.009 2°55.446 1.1 289 8.3 102490 79
2005-04-05 07:18:31 51°14.009 2°55.446 2.5 283 8.3 102490 79
2005-04-05 07:18:35 51°14.009 2°55.446 1.8 255 8.4 102490 79
2005-04-05 07:18:39 51°14.009 2°55.446 1.6 243 8.4 102490 79
2005-04-05 07:18:44 51°14.009 2°55.446 1.6 261 8.4 102490 79
2005-04-05 07:18:51 51°14.009 2°55.446 1.7 257 8.4 102490 79
2005-04-05 07:18:55 51°14.009 2°55.446 2.3 228 8.4 102490 79
2005-04-05 07:19:01 51°14.009 2°55.446 2.7 216 8.4 102490 79
2005-04-05 07:19:05 51°14.009 2°55.446 1.9 258 8.4 102490 79
2005-04-05 07:19:11 51°14.009 2°55.447 1.5 280 8.4 102490 79
2005-04-05 07:19:15 51°14.01 2°55.448 1.6 255 8.4 102490 79
2005-04-05 07:19:20 51°14.01 2°55.448 2.4 248 8.4 102490 79
2005-04-05 07:19:25 51°14.01 2°55.448 2.7 243 8.4 102490 79
2005-04-05 07:19:30 51°14.01 2°55.448 3.3 266 8.4 102490 79
2005-04-05 07:19:35 51°14.01 2°55.448 2.7 269 8.4 102490 79
2005-04-05 07:19:40 51°14.01 2°55.449 3 249 8.4 102490 79
2005-04-05 07:19:45 51°14.011 2°55.449 1.8 238 8.4 102500 79
2005-04-05 07:19:51 51°14.011 2°55.449 2.7 267 8.4 102500 79
2005-04-05 07:19:55 51°14.011 2°55.449 4.6 238 8.4 102500 79
2005-04-05 07:19:59 51°14.011 2°55.448 4.9 250 8.4 102500 79
2005-04-05 07:20:04 51°14.011 2°55.448 3.2 256 8.4 102490 79
2005-04-05 07:20:11 51°14.011 2°55.449 3.5 266 8.4 102490 79
2005-04-05 07:20:15 51°14.011 2°55.449 4.3 266 8.4 102490 79
2005-04-05 07:20:19 51°14.011 2°55.449 4.1 264 8.4 102490 79
2005-04-05 07:20:25 51°14.011 2°55.449 4.9 260 8.4 102500 79
2005-04-05 07:20:31 51°14.011 2°55.449 3.5 260 8.4 102500 79
2005-04-05 07:20:35 51°14.011 2°55.449 2.9 294 8.3 102490 79
2005-04-05 07:20:41 51°14.011 2°55.448 4.2 249 8.3 102490 79
2005-04-05 07:20:45 51°14.011 2°55.449 3.3 249 8.3 102490 79
2005-04-05 07:20:51 51°14.011 2°55.449 2.8 264 8.3 102490 79
2005-04-05 07:20:55 51°14.011 2°55.449 3.3 258 8.3 102500 79
2005-04-05 07:21:01 51°14.011 2°55.449 3.6 281 8.3 102500 79
2005-04-05 07:21:05 51°14.011 2°55.449 2.8 250 8.3 102490 79
2005-04-05 07:21:11 51°14.011 2°55.449 2.9 262 8.3 102490 79
2005-04-05 07:21:15 51°14.011 2°55.449 3.8 239 8.3 102500 79
2005-04-05 07:21:21 51°14.011 2°55.449 5.5 243 8.3 102500 79
2005-04-05 07:21:26 51°14.011 2°55.448 3.2 259 8.3 102490 79
2005-04-05 07:21:30 51°14.01 2°55.448 4.5 250 8.3 102490 79
2005-04-05 07:21:36 51°14.01 2°55.448 2.6 261 8.3 102500 79
2005-04-05 07:21:40 51°14.01 2°55.448 3.3 255 8.3 102500 79
2005-04-05 07:21:45 51°14.01 2°55.448 2.6 255 8.3 102490 79
2005-04-05 07:21:51 51°14.01 2°55.448 2 256 8.3 102490 79
2005-04-05 07:21:55 51°14.01 2°55.448 1.9 257 8.3 102490 79
2005-04-05 07:22:01 51°14.01 2°55.448 2.9 274 8.3 102490 79
2005-04-05 07:22:05 51°14.01 2°55.448 2.6 278 8.3 102490 79
2005-04-05 07:22:10 51°14.01 2°55.448 2.8 294 8.3 102490 79
2005-04-05 07:22:15 51°14.01 2°55.448 3.7 283 8.2 102490 79
2005-04-05 07:22:21 51°14.01 2°55.448 4.3 268 8.2 102490 79
2005-04-05 07:22:26 51°14.01 2°55.448 5.1 278 8.3 102490 79
2005-04-05 07:22:30 51°14.01 2°55.448 4.3 269 8.3 102490 79
2005-04-05 07:22:36 51°14.01 2°55.448 4.1 271 8.2 102490 79
2005-04-05 07:22:41 51°14.01 2°55.448 4.1 282 8.2 102490 79
2005-04-05 07:22:46 51°14.01 2°55.448 3.6 276 8.2 102490 79
2005-04-05 07:22:51 51°14.01 2°55.448 2.3 258 8.2 102490 79
2005-04-05 07:22:55 51°14.01 2°55.448 4.4 273 8.2 102500 80
2005-04-05 07:23:00 51°14.01 2°55.448 4.2 268 8.2 102500 80
2005-04-05 07:23:05 51°14.01 2°55.448 4.8 263 8.2 102500 80
2005-04-05 07:23:10 51°14.01 2°55.448 4.1 256 8.2 102500 80
2005-04-05 07:23:15 51°14.01 2°55.448 4.1 263 8.2 102500 80
2005-04-05 07:23:21 51°14.01 2°55.448 4.2 262 8.2 102500 80
2005-04-05 07:23:25 51°14.01 2°55.448 4.2 252 8.2 102500 80
2005-04-05 07:23:30 51°14.01 2°55.448 4.6 243 8.2 102500 80
2005-04-05 07:23:35 51°14.01 2°55.448 3.2 262 8.2 102500 80
2005-04-05 07:23:39 51°14.01 2°55.448 4.9 232 8.2 102500 80
2005-04-05 07:23:45 51°14.01 2°55.448 4.1 257 8.2 102500 80
2005-04-05 07:23:51 51°14.01 2°55.448 4.4 254 8.2 102500 80
2005-04-05 07:23:55 51°14.01 2°55.448 5.2 259 8.2 102500 80
2005-04-05 07:24:01 51°14.009 2°55.447 3.8 256 8.2 102500 80
2005-04-05 07:24:05 51°14.009 2°55.447 2.9 259 8.1 102500 80
2005-04-05 07:24:11 51°14.009 2°55.447 3.4 243 8.1 102500 80
2005-04-05 07:24:15 51°14.009 2°55.447 4.9 247 8.1 102500 80
2005-04-05 07:24:21 51°14.01 2°55.447 4.9 270 8.1 102500 80
2005-04-05 07:24:25 51°14.01 2°55.447 4.2 267 8.1 102500 80
2005-04-05 07:24:30 51°14.01 2°55.448 4.2 255 8.1 102500 80
2005-04-05 07:24:35 51°14.01 2°55.448 4.2 271 8.1 102490 80
2005-04-05 07:24:39 51°14.01 2°55.448 4.3 255 8.1 102490 80
2005-04-05 07:24:45 51°14.01 2°55.448 3.9 250 8 102500 80
2005-04-05 07:24:51 51°14.01 2°55.448 3.7 251 8 102500 80
2005-04-05 07:24:55 51°14.01 2°55.448 4 251 8 102500 80
2005-04-05 07:25:00 51°14.01 2°55.448 2.8 260 8 102500 80
2005-04-05 07:25:05 51°14.01 2°55.447 2.8 266 8 102500 80
2005-04-05 07:25:11 51°14.01 2°55.447 2 262 8 102500 80
2005-04-05 07:25:16 51°14.01 2°55.447 3 262 8 102500 80
2005-04-05 07:25:21 51°14.01 2°55.448 3.6 254 8 102500 80
2005-04-05 07:25:25 51°14.01 2°55.447 2.8 263 8 102500 80
2005-04-05 07:25:31 51°14.01 2°55.447 3.2 249 8 102500 80
2005-04-05 07:25:36 51°14.01 2°55.447 4.3 264 8 102500 80
2005-04-05 07:25:41 51°14.01 2°55.447 5.9 268 8 102500 80
2005-04-05 07:25:45 51°14.01 2°55.447 4.9 272 8 102500 80
2005-04-05 07:25:51 51°14.01 2°55.447 3.7 265 8 102500 80
2005-04-05 07:25:55 51°14.01 2°55.447 3.4 252 8 102500 80
2005-04-05 07:26:01 51°14.01 2°55.447 2.2 249 8 102500 80
2005-04-05 07:26:05 51°14.01 2°55.447 3.8 252 8 102500 80
2005-04-05 07:26:10 51°14.01 2°55.447 6.2 237 8 102500 80
2005-04-05 07:26:15 51°14.01 2°55.447 3.8 254 8 102500 80
2005-04-05 07:26:21 51°14.01 2°55.447 3 264 8 102500 80
2005-04-05 07:26:25 51°14.01 2°55.447 5.4 284 8 102500 80
2005-04-05 07:26:31 51°14.01 2°55.447 5.5 279 8 102500 80
2005-04-05 07:26:35 51°14.01 2°55.447 6.4 273 8 102500 80
2005-04-05 07:26:40 51°14.01 2°55.447 4.3 268 8 102500 80
2005-04-05 07:26:45 51°14.01 2°55.447 2.9 260 7.9 102500 80
2005-04-05 07:26:51 51°14.01 2°55.447 3.3 262 7.9 102500 80
2005-04-05 07:26:55 51°14.01 2°55.447 3.5 260 7.9 102500 80
2005-04-05 07:27:01 51°14.011 2°55.448 3.7 265 7.9 102500 80
2005-04-05 07:27:05 51°14.012 2°55.448 4 267 7.9 102500 80
2005-04-05 07:27:11 51°14.012 2°55.449 3.9 278 7.9 102500 80
2005-04-05 07:27:15 51°14.012 2°55.449 3.2 275 7.9 102500 80
2005-04-05 07:27:21 51°14.012 2°55.449 2.5 269 7.9 102500 80
2005-04-05 07:27:26 51°14.012 2°55.449 2.1 259 7.9 102500 79
2005-04-05 07:27:31 51°14.012 2°55.449 3.6 253 7.9 102500 79
2005-04-05 07:27:35 51°14.012 2°55.449 1.9 258 7.9 102500 79
2005-04-05 07:27:41 51°14.012 2°55.449 2.7 258 7.9 102500 79
2005-04-05 07:27:45 51°14.012 2°55.449 3.6 253 7.9 102500 79
2005-04-05 07:27:51 51°14.012 2°55.449 3.2 248 7.9 102500 79
2005-04-05 07:27:56 51°14.012 2°55.449 2.9 243 7.9 102500 79
2005-04-05 07:28:00 51°14.012 2°55.449 4.7 266 7.9 102500 79
2005-04-05 07:28:05 51°14.012 2°55.449 4.3 273 7.9 102500 79
2005-04-05 07:28:11 51°14.012 2°55.448 4.3 279 7.9 102500 79
2005-04-05 07:28:15 51°14.012 2°55.448 4.2 249 7.9 102500 79
2005-04-05 07:28:21 51°14.012 2°55.448 2.8 261 7.9 102500 79
2005-04-05 07:28:25 51°14.012 2°55.448 4.4 275 7.9 102500 79
2005-04-05 07:28:31 51°14.012 2°55.448 3.4 265 7.9 102500 79
2005-04-05 07:28:35 51°14.012 2°55.449 2.6 256 7.9 102500 79
2005-04-05 07:28:40 51°14.013 2°55.449 2.9 262 7.9 102500 79
2005-04-05 07:28:45 51°14.013 2°55.449 2.6 252 7.9 102500 79
2005-04-05 07:28:51 51°14.013 2°55.449 2.4 259 7.9 102500 79
2005-04-05 07:28:55 51°14.013 2°55.449 2.2 257 7.9 102500 79
2005-04-05 07:29:00 51°14.013 2°55.449 2.9 266 7.9 102500 79
2005-04-05 07:29:06 51°14.013 2°55.449 3.1 290 7.9 102490 79
2005-04-05 07:29:10 51°14.013 2°55.449 2.6 285 7.9 102490 79
2005-04-05 07:29:15 51°14.013 2°55.449 2.7 273 7.9 102500 79
2005-04-05 07:29:21 51°14.013 2°55.449 2.5 250 7.9 102500 79
2005-04-05 07:29:25 51°14.013 2°55.449 1.7 259 7.9 102500 79
2005-04-05 07:29:31 51°14.013 2°55.449 2.6 267 7.9 102500 79
2005-04-05 07:29:35 51°14.013 2°55.449 3.3 280 7.9 102500 80
2005-04-05 07:29:41 51°14.013 2°55.45 3 277 7.9 102500 80
2005-04-05 07:29:45 51°14.013 2°55.45 2.5 257 7.9 102500 80
2005-04-05 07:29:50 51°14.013 2°55.45 2.6 262 7.9 102500 80
2005-04-05 07:29:55 51°14.013 2°55.449 2.5 268 7.9 102490 80
2005-04-05 07:30:01 51°14.013 2°55.449 2.7 254 7.9 102490 80
2005-04-05 07:30:05 51°14.012 2°55.449 2.4 261 7.9 102490 80
2005-04-05 07:30:10 51°14.012 2°55.449 3.7 267 7.9 102490 80
2005-04-05 07:30:15 51°14.012 2°55.449 2.7 249 7.9 102500 80
2005-04-05 07:30:21 51°14.012 2°55.449 2.4 252 7.9 102500 80
2005-04-05 07:30:25 51°14.011 2°55.448 2.9 241 8 102500 80
2005-04-05 07:30:30 51°14.011 2°55.448 3.6 248 8 102500 80
2005-04-05 07:30:35 51°14.011 2°55.448 2.6 251 8 102500 80
2005-04-05 07:30:41 51°14.011 2°55.448 3.8 263 8 102500 80
2005-04-05 07:30:44 51°14.011 2°55.448 4.4 239 8 102490 80
2005-04-05 07:30:51 51°14.011 2°55.448 2.8 252 8 102490 80
2005-04-05 07:30:55 51°14.011 2°55.448 2.5 258 8 102500 80
2005-04-05 07:31:01 51°14.011 2°55.448 2.2 249 8 102500 80
2005-04-05 07:31:05 51°14.011 2°55.448 2.1 259 8 102490 80
2005-04-05 07:31:11 51°14.011 2°55.448 2.1 251 8 102490 80
2005-04-05 07:31:15 51°14.012 2°55.448 2.3 262 8 102500 80
2005-04-05 07:31:20 51°14.012 2°55.448 2.8 262 8 102500 80
2005-04-05 07:31:25 51°14.012 2°55.448 2.6 266 8 102500 80
2005-04-05 07:31:31 51°14.012 2°55.449 1.3 263 8 102500 80
2005-04-05 07:31:36 51°14.011 2°55.449 2.8 270 8 102490 80
2005-04-05 07:31:41 51°14.011 2°55.449 1.5 263 8 102490 80
2005-04-05 07:31:45 51°14.011 2°55.448 1.3 242 8 102500 80
2005-04-05 07:31:51 51°14.011 2°55.449 1.9 213 8 102500 80
2005-04-05 07:31:56 51°14.012 2°55.449 1 242 8 102500 80
2005-04-05 07:32:00 51°14.012 2°55.449 0.8 244 8 102500 80
2005-04-05 07:32:06 51°14.012 2°55.449 1 256 8 102490 80
2005-04-05 07:32:11 51°14.012 2°55.449 0.7 44 8 102490 80
2005-04-05 07:32:15 51°14.012 2°55.449 0.2 162 8 102490 80
2005-04-05 07:32:19 51°14.012 2°55.449 1.1 254 8 102490 80
2005-04-05 07:32:25 51°14.012 2°55.449 2.5 281 8 102490 80
2005-04-05 07:32:31 51°14.012 2°55.449 3.3 232 8 102490 80
2005-04-05 07:32:35 51°14.012 2°55.449 2 250 8.1 102500 80
2005-04-05 07:32:41 51°14.012 2°55.449 2.7 261 8.1 102500 80
2005-04-05 07:32:46 51°14.012 2°55.449 2.8 248 8.1 102500 80
2005-04-05 07:32:50 51°14.012 2°55.449 3.3 257 8.1 102500 80
2005-04-05 07:32:55 51°14.012 2°55.449 3.3 253 8.1 102500 80
2005-04-05 07:33:01 51°14.012 2°55.449 2.5 259 8.1 102500 80
2005-04-05 07:33:05 51°14.012 2°55.449 3.3 220 8.1 102500 80
2005-04-05 07:33:10 51°14.012 2°55.449 2.5 250 8.1 102500 80
2005-04-05 07:33:16 51°14.012 2°55.449 2.5 265 8.1 102500 80
2005-04-05 07:33:20 51°14.012 2°55.449 2.6 232 8.1 102500 80
2005-04-05 07:33:25 51°14.012 2°55.448 2.9 244 8.1 102500 80
2005-04-05 07:33:31 51°14.012 2°55.449 2.8 260 8.1 102500 80
2005-04-05 07:33:36 51°14.012 2°55.449 3.3 264 8.1 102500 79
2005-04-05 07:33:41 51°14.012 2°55.449 3.1 269 8.1 102500 79
2005-04-05 07:33:45 51°14.012 2°55.449 2.2 256 8.1 102500 79
2005-04-05 07:33:50 51°14.012 2°55.449 1.6 247 8.1 102500 79
2005-04-05 07:33:55 51°14.012 2°55.449 2.5 249 8.1 102500 79
2005-04-05 07:34:01 51°14.012 2°55.448 2.5 249 8.1 102500 79
2005-04-05 07:34:05 51°14.012 2°55.448 1.1 241 8.1 102500 79
2005-04-05 07:34:11 51°14.012 2°55.448 3.9 226 8.1 102500 79
2005-04-05 07:34:15 51°14.012 2°55.448 1.6 233 8.1 102500 79
2005-04-05 07:34:20 51°14.012 2°55.448 1 192 8.1 102500 79
2005-04-05 07:34:25 51°14.012 2°55.448 3.5 244 8.1 102500 79
2005-04-05 07:34:31 51°14.012 2°55.448 1.3 289 8.1 102500 79
2005-04-05 07:34:36 51°14.012 2°55.448 2.7 213 8.1 102500 79
2005-04-05 07:34:41 51°14.012 2°55.449 2.6 240 8.1 102500 79
2005-04-05 07:34:46 51°14.012 2°55.449 2.6 250 8.1 102500 79
2005-04-05 07:34:50 51°14.012 2°55.449 3 281 8.1 102500 79
2005-04-05 07:34:55 51°14.012 2°55.449 1.7 257 8.1 102500 79
2005-04-05 07:35:01 51°14.012 2°55.449 2 254 8.1 102500 79
2005-04-05 07:35:04 51°14.012 2°55.449 2 236 8.1 102500 79
2005-04-05 07:35:11 51°14.012 2°55.449 1.8 233 8.1 102500 79
2005-04-05 07:35:15 51°14.011 2°55.449 1.4 225 8.1 102500 79
2005-04-05 07:35:20 51°14.011 2°55.449 0.9 241 8.1 102500 79
2005-04-05 07:35:26 51°14.011 2°55.449 2 255 8.1 102510 79
2005-04-05 07:35:31 51°14.011 2°55.448 1.7 270 8.1 102510 79
2005-04-05 07:35:35 51°14.011 2°55.448 1.7 255 8.1 102500 79
2005-04-05 07:35:41 51°14.011 2°55.448 1.6 256 8.1 102500 79
2005-04-05 07:35:45 51°14.011 2°55.448 1.8 251 8.1 102500 79
2005-04-05 07:35:51 51°14.011 2°55.448 1 247 8.1 102500 79
2005-04-05 07:35:55 51°14.011 2°55.448 1.4 221 8.1 102500 79
2005-04-05 07:36:01 51°14.011 2°55.448 2.5 249 8.1 102500 79
2005-04-05 07:36:05 51°14.011 2°55.448 2.2 260 8.1 102500 79
2005-04-05 07:36:11 51°14.011 2°55.448 2 249 8.1 102500 79
2005-04-05 07:36:15 51°14.01 2°55.447 2 242 8.1 102500 79
2005-04-05 07:36:21 51°14.01 2°55.447 2.1 226 8.1 102500 79
2005-04-05 07:36:25 51°14.01 2°55.447 2.2 256 8.1 102500 79
2005-04-05 07:36:31 51°14.01 2°55.447 3.4 240 8.1 102500 79
2005-04-05 07:36:35 51°14.01 2°55.447 2.8 257 8.1 102500 79
2005-04-05 07:36:41 51°14.01 2°55.447 2.4 264 8.1 102500 79
2005-04-05 07:36:45 51°14.01 2°55.448 3.5 251 8.1 102500 79
2005-04-05 07:36:51 51°14.011 2°55.448 2.1 253 8.1 102500 79
2005-04-05 07:36:55 51°14.011 2°55.448 3 240 8.1 102500 78
2005-04-05 07:37:01 51°14.011 2°55.448 2.7 263 8.1 102500 78
2005-04-05 07:37:05 51°14.011 2°55.448 1.9 263 8.1 102500 78
2005-04-05 07:37:11 51°14.011 2°55.448 1.8 266 8.1 102500 78
2005-04-05 07:37:15 51°14.011 2°55.448 1.6 199 8.1 102500 78
2005-04-05 07:37:21 51°14.011 2°55.448 0.9 213 8.1 102500 78
2005-04-05 07:37:25 51°14.011 2°55.448 0.7 222 8.1 102500 78
2005-04-05 07:37:31 51°14.011 2°55.448 2.5 235 8.1 102500 78
2005-04-05 07:37:35 51°14.011 2°55.448 1.7 262 8.1 102500 78
2005-04-05 07:37:40 51°14.011 2°55.448 1.6 237 8.1 102500 78
2005-04-05 07:37:45 51°14.011 2°55.448 1.4 229 8.1 102500 78
2005-04-05 07:37:51 51°14.011 2°55.448 1.9 216 8.1 102500 78
2005-04-05 07:37:55 51°14.011 2°55.448 1.8 269 8.1 102500 78
2005-04-05 07:38:01 51°14.011 2°55.448 1.9 221 8.1 102500 78
2005-04-05 07:38:05 51°14.011 2°55.447 0.8 203 8.1 102500 78
2005-04-05 07:38:11 51°14.01 2°55.447 1.3 -999 8.1 102500 78
2005-04-05 07:38:15 51°14.01 2°55.447 2.2 261 8.1 102500 78
2005-04-05 07:38:20 51°14.01 2°55.447 3.2 274 8.1 102500 78
2005-04-05 07:38:24 51°14.01 2°55.447 2.7 276 8.1 102500 78
2005-04-05 07:38:31 51°14.01 2°55.447 2.3 256 8.1 102500 78
2005-04-05 07:38:35 51°14.011 2°55.447 1.8 285 8.1 102500 79
2005-04-05 07:38:40 51°14.012 2°55.448 2.3 275 8.1 102500 79
2005-04-05 07:38:46 51°14.012 2°55.448 1.5 248 8.1 102500 79
2005-04-05 07:38:50 51°14.012 2°55.448 1.4 267 8.1 102500 79
2005-04-05 07:38:55 51°14.012 2°55.448 1.3 233 8.1 102500 79
2005-04-05 07:39:01 51°14.012 2°55.448 2.3 263 8.1 102500 79
2005-04-05 07:39:05 51°14.012 2°55.449 2.8 270 8.1 102500 79
2005-04-05 07:39:11 51°14.012 2°55.449 2.5 274 8.1 102500 79
2005-04-05 07:39:16 51°14.012 2°55.449 1.3 248 8.1 102500 79
2005-04-05 07:39:21 51°14.012 2°55.449 2 251 8.1 102500 79
2005-04-05 07:39:25 51°14.012 2°55.449 1.5 196 8.1 102500 79
2005-04-05 07:39:31 51°14.012 2°55.449 1.9 216 8.1 102500 79
2005-04-05 07:39:35 51°14.012 2°55.449 1.5 210 8.1 102500 79
2005-04-05 07:39:41 51°14.012 2°55.448 2 255 8.1 102500 79
2005-04-05 07:39:46 51°14.012 2°55.449 1.9 259 8.1 102500 79
2005-04-05 07:39:51 51°14.012 2°55.449 2 261 8.1 102500 79
2005-04-05 07:39:55 51°14.012 2°55.449 2.3 219 8.1 102500 79
2005-04-05 07:39:59 51°14.012 2°55.449 2.2 228 8.1 102500 79
2005-04-05 07:40:05 51°14.012 2°55.449 2 251 8.2 102500 79
2005-04-05 07:40:11 51°14.012 2°55.449 2 283 8.2 102500 79
2005-04-05 07:40:15 51°14.012 2°55.448 1.6 246 8.2 102500 79
2005-04-05 07:40:20 51°14.012 2°55.448 2.8 258 8.2 102500 79
2005-04-05 07:40:25 51°14.012 2°55.448 2.7 227 8.2 102500 79
2005-04-05 07:40:31 51°14.012 2°55.448 1.7 242 8.2 102500 79
2005-04-05 07:40:35 51°14.012 2°55.448 2.3 227 8.2 102500 79
2005-04-05 07:40:39 51°14.011 2°55.448 2.1 227 8.2 102500 79
2005-04-05 07:40:45 51°14.011 2°55.448 2.3 235 8.2 102500 79
2005-04-05 07:40:51 51°14.012 2°55.449 2.4 250 8.2 102500 79
2005-04-05 07:40:55 51°14.012 2°55.449 1.5 228 8.2 102500 79
2005-04-05 07:41:01 51°14.012 2°55.449 2.6 271 8.2 102500 79
2005-04-05 07:41:05 51°14.013 2°55.449 1.7 272 8.2 102500 79
2005-04-05 07:41:11 51°14.013 2°55.449 1.7 259 8.2 102500 79
2005-04-05 07:41:15 51°14.013 2°55.449 2 257 8.2 102500 79
2005-04-05 07:41:20 51°14.013 2°55.449 2 259 8.2 102500 79
2005-04-05 07:41:25 51°14.013 2°55.449 4.1 274 8.2 102500 79
2005-04-05 07:41:30 51°14.013 2°55.449 2.9 274 8.2 102500 79
2005-04-05 07:41:35 51°14.013 2°55.449 1.7 263 8.2 102500 79
2005-04-05 07:41:41 51°14.013 2°55.449 1.9 253 8.2 102500 79
2005-04-05 07:41:45 51°14.013 2°55.449 1.5 257 8.2 102500 79
2005-04-05 07:41:51 51°14.013 2°55.449 2.1 273 8.2 102500 79
2005-04-05 07:41:55 51°14.013 2°55.449 2.7 266 8.2 102500 79
2005-04-05 07:42:01 51°14.013 2°55.449 2.8 260 8.2 102500 79
2005-04-05 07:42:05 51°14.013 2°55.449 1.7 259 8.2 102500 79
2005-04-05 07:42:11 51°14.013 2°55.449 2.1 243 8.2 102500 79
2005-04-05 07:42:15 51°14.013 2°55.449 1.6 241 8.2 102500 79
2005-04-05 07:42:21 51°14.013 2°55.449 1.8 231 8.2 102500 79
2005-04-05 07:42:25 51°14.013 2°55.449 1.5 235 8.3 102500 79
2005-04-05 07:42:30 51°14.013 2°55.449 1.7 210 8.3 102500 79
2005-04-05 07:42:35 51°14.013 2°55.449 1.2 221 8.3 102500 79
2005-04-05 07:42:41 51°14.012 2°55.449 0.9 261 8.3 102500 79
2005-04-05 07:42:45 51°14.012 2°55.449 0.9 259 8.3 102500 79
2005-04-05 07:42:50 51°14.012 2°55.449 1.2 258 8.3 102500 79
2005-04-05 07:42:55 51°14.012 2°55.449 1.3 238 8.3 102500 79
2005-04-05 07:43:01 51°14.012 2°55.449 1.9 242 8.3 102500 79
2005-04-05 07:43:05 51°14.012 2°55.449 2.1 273 8.3 102500 79
2005-04-05 07:43:11 51°14.012 2°55.449 1.8 266 8.3 102500 79
2005-04-05 07:43:15 51°14.012 2°55.449 1.2 227 8.3 102500 79
2005-04-05 07:43:20 51°14.012 2°55.449 0.9 232 8.3 102500 79
2005-04-05 07:43:26 51°14.012 2°55.449 0.8 179 8.3 102500 79
2005-04-05 07:43:31 51°14.012 2°55.449 0.7 180 8.3 102500 79
2005-04-05 07:43:35 51°14.012 2°55.449 0.4 192 8.3 102500 79
2005-04-05 07:43:41 51°14.013 2°55.449 0.9 223 8.3 102500 79
2005-04-05 07:43:45 51°14.013 2°55.449 1 268 8.3 102500 79
2005-04-05 07:43:50 51°14.012 2°55.448 1 267 8.3 102500 79
2005-04-05 07:43:55 51°14.012 2°55.448 1.3 231 8.3 102500 79
2005-04-05 07:44:01 51°14.012 2°55.448 2.1 270 8.3 102500 79
2005-04-05 07:44:05 51°14.012 2°55.448 2.8 244 8.3 102500 79
2005-04-05 07:44:11 51°14.012 2°55.448 2.7 255 8.3 102500 79
2005-04-05 07:44:15 51°14.012 2°55.448 2.1 252 8.3 102500 79
2005-04-05 07:44:21 51°14.012 2°55.448 2.3 249 8.3 102500 79
2005-04-05 07:44:25 51°14.012 2°55.448 3 286 8.3 102500 79
2005-04-05 07:44:31 51°14.012 2°55.448 2.4 269 8.3 102500 79
2005-04-05 07:44:35 51°14.012 2°55.448 4 281 8.4 102500 79
2005-04-05 07:44:41 51°14.012 2°55.448 3.3 283 8.4 102500 79
2005-04-05 07:44:45 51°14.012 2°55.448 4.2 241 8.4 102500 79
2005-04-05 07:44:51 51°14.012 2°55.448 3.7 245 8.4 102500 79
2005-04-05 07:44:55 51°14.012 2°55.448 3.1 250 8.4 102500 79
2005-04-05 07:45:00 51°14.012 2°55.448 2.9 236 8.4 102500 79
2005-04-05 07:45:05 51°14.012 2°55.448 3 252 8.4 102500 78
2005-04-05 07:45:11 51°14.011 2°55.448 4.1 241 8.4 102500 78
2005-04-05 07:45:15 51°14.011 2°55.448 2.1 257 8.4 102500 78
2005-04-05 07:45:21 51°14.011 2°55.448 2.6 260 8.4 102500 78
2005-04-05 07:45:25 51°14.011 2°55.448 2.3 253 8.4 102500 78
2005-04-05 07:45:31 51°14.011 2°55.448 2.2 260 8.4 102500 78
2005-04-05 07:45:35 51°14.011 2°55.448 3.4 265 8.3 102500 78
2005-04-05 07:45:40 51°14.011 2°55.447 4.1 267 8.3 102500 78
2005-04-05 07:45:45 51°14.011 2°55.447 4.2 273 8.4 102500 78
2005-04-05 07:45:51 51°14.011 2°55.447 1.9 267 8.4 102500 78
2005-04-05 07:45:55 51°14.011 2°55.447 1.2 227 8.4 102500 78
2005-04-05 07:45:59 51°14.012 2°55.448 1 186 8.4 102500 78
2005-04-05 07:46:04 51°14.012 2°55.448 2.3 309 8.4 102500 78
2005-04-05 07:46:11 51°14.012 2°55.448 1.2 315 8.4 102500 78
2005-04-05 07:46:15 51°14.012 2°55.448 2.1 262 8.4 102500 78
2005-04-05 07:46:21 51°14.012 2°55.448 2.3 263 8.4 102500 78
2005-04-05 07:46:25 51°14.012 2°55.448 2.7 243 8.4 102500 78
2005-04-05 07:46:30 51°14.012 2°55.448 2.4 262 8.4 102500 78
2005-04-05 07:46:35 51°14.012 2°55.448 1.7 293 8.4 102500 78
2005-04-05 07:46:41 51°14.012 2°55.448 1.8 260 8.4 102500 78
2005-04-05 07:46:45 51°14.011 2°55.448 2.8 256 8.4 102500 78
2005-04-05 07:46:51 51°14.011 2°55.448 2.8 282 8.4 102500 78
2005-04-05 07:46:55 51°14.012 2°55.448 2.9 230 8.4 102500 78
2005-04-05 07:47:01 51°14.012 2°55.448 2 256 8.4 102500 78
2005-04-05 07:47:05 51°14.012 2°55.448 3.3 266 8.4 102500 78
2005-04-05 07:47:11 51°14.012 2°55.448 3.4 232 8.4 102500 78
2005-04-05 07:47:16 51°14.011 2°55.448 3.1 218 8.4 102500 78
2005-04-05 07:47:21 51°14.011 2°55.448 2.4 221 8.4 102500 78
2005-04-05 07:47:25 51°14.011 2°55.448 1.3 196 8.4 102500 78
2005-04-05 07:47:30 51°14.011 2°55.448 1.6 262 8.4 102500 78
2005-04-05 07:47:35 51°14.011 2°55.448 2 251 8.4 102500 78
2005-04-05 07:47:41 51°14.011 2°55.448 2.2 267 8.4 102500 78
2005-04-05 07:47:46 51°14.011 2°55.448 1.9 271 8.4 102500 78
2005-04-05 07:47:51 51°14.011 2°55.448 2.6 256 8.4 102500 78
2005-04-05 07:47:55 51°14.011 2°55.448 2.7 256 8.4 102500 78
2005-04-05 07:48:01 51°14.011 2°55.448 3.1 261 8.4 102500 78
2005-04-05 07:48:04 51°14.011 2°55.448 3.7 273 8.4 102500 78
2005-04-05 07:48:11 51°14.011 2°55.448 2.9 277 8.4 102500 78
2005-04-05 07:48:15 51°14.011 2°55.448 1.8 246 8.4 102500 78
2005-04-05 07:48:21 51°14.011 2°55.448 2.6 239 8.4 102500 78
2005-04-05 07:48:25 51°14.011 2°55.448 3 220 8.4 102510 78
2005-04-05 07:48:31 51°14.011 2°55.448 2.3 199 8.4 102510 78
2005-04-05 07:48:35 51°14.011 2°55.448 1.5 212 8.4 102500 78
2005-04-05 07:48:41 51°14.011 2°55.448 2.6 269 8.4 102500 78
2005-04-05 07:48:45 51°14.011 2°55.448 2.2 228 8.4 102500 78
2005-04-05 07:48:51 51°14.011 2°55.448 2.2 231 8.4 102500 78
2005-04-05 07:48:55 51°14.011 2°55.448 1.5 198 8.4 102500 77
2005-04-05 07:49:01 51°14.011 2°55.448 1.6 215 8.4 102500 77
2005-04-05 07:49:05 51°14.011 2°55.448 1.1 258 8.5 102500 77
2005-04-05 07:49:11 51°14.011 2°55.448 2.9 282 8.5 102500 77
2005-04-05 07:49:15 51°14.011 2°55.448 2.4 252 8.5 102500 77
2005-04-05 07:49:21 51°14.011 2°55.448 2.4 217 8.5 102500 77
2005-04-05 07:49:25 51°14.011 2°55.448 1.5 213 8.4 102500 77
2005-04-05 07:49:31 51°14.011 2°55.448 2.1 248 8.4 102500 77
2005-04-05 07:49:35 51°14.011 2°55.448 1.7 258 8.4 102510 77
2005-04-05 07:49:40 51°14.011 2°55.448 2.8 257 8.4 102510 77
2005-04-05 07:49:45 51°14.011 2°55.448 2.9 251 8.4 102500 77
2005-04-05 07:49:51 51°14.011 2°55.448 2.4 248 8.4 102500 77
2005-04-05 07:49:55 51°14.011 2°55.448 2 246 8.5 102500 77
2005-04-05 07:50:01 51°14.011 2°55.448 2.1 247 8.5 102500 77
2005-04-05 07:50:05 51°14.011 2°55.448 2.5 263 8.5 102500 77
2005-04-05 07:50:11 51°14.011 2°55.448 3.4 254 8.5 102500 77
2005-04-05 07:50:15 51°14.011 2°55.448 3.2 262 8.5 102500 77
2005-04-05 07:50:21 51°14.011 2°55.448 4.9 268 8.5 102500 77
2005-04-05 07:50:25 51°14.011 2°55.448 4.5 272 8.5 102510 77
2005-04-05 07:50:29 51°14.011 2°55.448 2.7 245 8.5 102510 77
2005-04-05 07:50:35 51°14.011 2°55.448 3.9 272 8.5 102500 77
2005-04-05 07:50:41 51°14.011 2°55.448 1.8 262 8.5 102500 77
2005-04-05 07:50:45 51°14.011 2°55.448 1.9 263 8.5 102500 77
2005-04-05 07:50:50 51°14.011 2°55.448 2.9 246 8.5 102500 77
2005-04-05 07:50:55 51°14.011 2°55.447 3.6 232 8.5 102510 77
2005-04-05 07:51:01 51°14.011 2°55.447 1.9 276 8.5 102510 77
2005-04-05 07:51:05 51°14.011 2°55.447 3.7 266 8.5 102500 77
2005-04-05 07:51:10 51°14.011 2°55.447 3.7 270 8.5 102500 77
2005-04-05 07:51:15 51°14.011 2°55.447 2.8 248 8.5 102510 77
2005-04-05 07:51:21 51°14.011 2°55.448 2.7 255 8.5 102510 77
2005-04-05 07:51:25 51°14.011 2°55.448 2.2 260 8.5 102500 77
2005-04-05 07:51:31 51°14.011 2°55.448 2.4 254 8.5 102500 77
2005-04-05 07:51:35 51°14.011 2°55.448 1.9 200 8.5 102500 77
2005-04-05 07:51:40 51°14.011 2°55.448 1.4 221 8.5 102500 77
2005-04-05 07:51:46 51°14.011 2°55.448 2.3 272 8.5 102510 77
2005-04-05 07:51:51 51°14.011 2°55.448 2.8 265 8.5 102510 77
2005-04-05 07:51:55 51°14.011 2°55.448 3.3 271 8.5 102510 77
2005-04-05 07:52:01 51°14.011 2°55.448 2.5 264 8.5 102510 77
2005-04-05 07:52:05 51°14.011 2°55.448 1.6 250 8.5 102510 77
2005-04-05 07:52:11 51°14.011 2°55.448 2.2 260 8.5 102510 77
2005-04-05 07:52:15 51°14.011 2°55.447 2.3 256 8.5 102510 77
2005-04-05 07:52:20 51°14.011 2°55.447 1.5 256 8.5 102510 77
2005-04-05 07:52:25 51°14.011 2°55.447 1.9 265 8.5 102510 77
2005-04-05 07:52:31 51°14.011 2°55.447 1.3 266 8.5 102510 77
2005-04-05 07:52:35 51°14.011 2°55.448 0.6 203 8.5 102510 77
2005-04-05 07:52:41 51°14.011 2°55.447 1.1 170 8.5 102510 77
2005-04-05 07:52:45 51°14.011 2°55.447 0.7 179 8.6 102510 77
2005-04-05 07:52:50 51°14.011 2°55.447 0.5 179 8.6 102510 77
2005-04-05 07:52:55 51°14.011 2°55.447 1 266 8.6 102500 77
2005-04-05 07:53:01 51°14.011 2°55.447 1 273 8.6 102500 77
2005-04-05 07:53:05 51°14.011 2°55.447 0.6 273 8.6 102500 77
2005-04-05 07:53:11 51°14.011 2°55.448 0.2 215 8.6 102500 77
2005-04-05 07:53:15 51°14.011 2°55.448 1.1 214 8.6 102500 77
2005-04-05 07:53:21 51°14.011 2°55.448 1.1 215 8.6 102500 77
2005-04-05 07:53:25 51°14.011 2°55.448 2.2 283 8.6 102500 77
2005-04-05 07:53:31 51°14.011 2°55.448 1.5 185 8.6 102500 77
2005-04-05 07:53:35 51°14.011 2°55.447 1.8 185 8.6 102510 77
2005-04-05 07:53:41 51°14.011 2°55.448 0.7 184 8.6 102510 77
2005-04-05 07:53:45 51°14.011 2°55.448 0.3 189 8.6 102510 77
2005-04-05 07:53:51 51°14.011 2°55.447 0.3 186 8.6 102510 77
2005-04-05 07:53:55 51°14.011 2°55.447 0.3 185 8.6 102510 77
2005-04-05 07:54:01 51°14.011 2°55.448 0.2 186 8.6 102510 77
2005-04-05 07:54:04 51°14.011 2°55.448 0.3 186 8.6 102510 77
2005-04-05 07:54:11 51°14.011 2°55.448 0.5 194 8.6 102510 77
2005-04-05 07:54:15 51°14.012 2°55.448 0.4 194 8.6 102510 77
2005-04-05 07:54:20 51°14.012 2°55.448 0.5 194 8.6 102510 77
2005-04-05 07:54:25 51°14.012 2°55.448 1.5 214 8.7 102510 77
2005-04-05 07:54:31 51°14.012 2°55.448 1.1 192 8.7 102510 77
2005-04-05 07:54:35 51°14.012 2°55.448 1.3 230 8.7 102510 77
2005-04-05 07:54:41 51°14.012 2°55.448 0.7 230 8.7 102510 77
2005-04-05 07:54:45 51°14.012 2°55.448 1.1 237 8.7 102510 77
2005-04-05 07:54:51 51°14.012 2°55.448 1.2 234 8.7 102510 77
2005-04-05 07:54:55 51°14.012 2°55.448 0.5 231 8.7 102500 77
2005-04-05 07:54:59 51°14.012 2°55.448 0.8 267 8.7 102500 77
2005-04-05 07:55:05 51°14.012 2°55.448 0.7 270 8.7 102510 77
2005-04-05 07:55:10 51°14.012 2°55.448 0.5 269 8.7 102510 77
2005-04-05 07:55:15 51°14.012 2°55.448 0.6 260 8.7 102510 77
2005-04-05 07:55:19 51°14.012 2°55.448 0.3 260 8.7 102510 77
2005-04-05 07:55:25 51°14.012 2°55.448 0.1 236 8.7 102510 77
2005-04-05 07:55:29 51°14.012 2°55.448 0.7 206 8.7 102510 77
2005-04-05 07:55:35 51°14.012 2°55.448 0.7 217 8.7 102510 77
2005-04-05 07:55:41 51°14.012 2°55.448 0.7 219 8.7 102510 77
2005-04-05 07:55:46 51°14.012 2°55.448 1.8 267 8.8 102500 77
2005-04-05 07:55:50 51°14.012 2°55.448 1.8 282 8.8 102500 77
2005-04-05 07:55:55 51°14.012 2°55.448 2 302 8.8 102500 77
2005-04-05 07:56:01 51°14.012 2°55.448 1.5 285 8.8 102500 77
2005-04-05 07:56:06 51°14.012 2°55.448 1.3 274 8.8 102510 77
2005-04-05 07:56:11 51°14.012 2°55.448 0.7 266 8.8 102510 77
2005-04-05 07:56:15 51°14.012 2°55.448 0.8 176 8.8 102510 77
2005-04-05 07:56:21 51°14.012 2°55.448 0.9 199 8.8 102510 77
2005-04-05 07:56:25 51°14.012 2°55.448 1.2 230 8.8 102500 77
2005-04-05 07:56:31 51°14.013 2°55.448 1.6 235 8.8 102500 77
2005-04-05 07:56:35 51°14.013 2°55.448 0.9 235 8.8 102510 77
2005-04-05 07:56:41 51°14.013 2°55.448 0.9 243 8.8 102510 77
2005-04-05 07:56:45 51°14.013 2°55.448 1.1 226 8.8 102500 77
2005-04-05 07:56:51 51°14.013 2°55.448 0.8 224 8.8 102500 77
2005-04-05 07:56:56 51°14.013 2°55.448 0.8 221 8.8 102510 77
2005-04-05 07:57:00 51°14.013 2°55.448 0.8 219 8.8 102510 77
2005-04-05 07:57:05 51°14.013 2°55.448 0.5 219 8.8 102510 76
2005-04-05 07:57:11 51°14.013 2°55.448 0.6 220 8.8 102510 76
2005-04-05 07:57:15 51°14.013 2°55.448 0.4 220 8.8 102500 76
2005-04-05 07:57:21 51°14.013 2°55.448 0.2 220 8.8 102500 76
2005-04-05 07:57:25 51°14.013 2°55.448 0.1 220 8.8 102510 76
2005-04-05 07:57:30 51°14.013 2°55.448 0.1 220 8.8 102510 76
2005-04-05 07:57:35 51°14.013 2°55.448 0.1 220 8.8 102510 76
2005-04-05 07:57:41 51°14.013 2°55.448 0.1 222 8.8 102510 76
2005-04-05 07:57:45 51°14.013 2°55.448 0.5 222 8.8 102510 76
2005-04-05 07:57:51 51°14.013 2°55.448 0.8 274 8.8 102510 76
2005-04-05 07:57:55 51°14.013 2°55.448 2 277 8.8 102510 77
2005-04-05 07:58:01 51°14.013 2°55.448 2.6 290 8.8 102510 77
2005-04-05 07:58:05 51°14.013 2°55.448 2.7 249 8.8 102510 77
2005-04-05 07:58:10 51°14.013 2°55.448 3 246 8.8 102510 77
2005-04-05 07:58:15 51°14.013 2°55.448 3 287 8.8 102500 77
2005-04-05 07:58:21 51°14.013 2°55.448 3.5 263 8.8 102500 77
2005-04-05 07:58:25 51°14.013 2°55.448 2.9 256 8.8 102500 77
2005-04-05 07:58:30 51°14.013 2°55.448 4.7 272 8.8 102500 77
2005-04-05 07:58:35 51°14.012 2°55.448 4.1 264 8.9 102510 77
2005-04-05 07:58:40 51°14.012 2°55.448 4.3 267 8.9 102510 77
2005-04-05 07:58:45 51°14.012 2°55.448 5.5 268 8.9 102510 76
2005-04-05 07:58:51 51°14.012 2°55.448 5.3 263 8.9 102510 76
2005-04-05 07:58:55 51°14.012 2°55.448 4.8 237 8.8 102500 76
2005-04-05 07:59:01 51°14.012 2°55.448 2.9 252 8.8 102500 76
2005-04-05 07:59:05 51°14.012 2°55.448 2.3 182 8.8 102510 76
2005-04-05 07:59:11 51°14.012 2°55.448 1.4 216 8.8 102510 76
2005-04-05 07:59:15 51°14.012 2°55.448 3.1 259 8.8 102510 76
2005-04-05 07:59:21 51°14.012 2°55.448 3.7 260 8.8 102510 76
2005-04-05 07:59:25 51°14.012 2°55.448 3.1 250 8.8 102510 76
2005-04-05 07:59:31 51°14.012 2°55.448 4.4 237 8.8 102510 76
2005-04-05 07:59:36 51°14.012 2°55.448 2.2 230 8.8 102510 76
2005-04-05 07:59:41 51°14.012 2°55.448 2.9 256 8.8 102510 76
2005-04-05 07:59:45 51°14.012 2°55.448 3.1 258 8.8 102510 76
2005-04-05 07:59:48 51°14.012 2°55.448 3 261 8.8 102510 76
2005-04-05 07:59:55 51°14.012 2°55.448 3.3 265 8.7 102510 76
2005-04-05 08:00:01 51°14.012 2°55.448 2.6 262 8.7 102510 76
2005-04-05 08:00:06 51°14.012 2°55.448 2.8 226 8.7 102510 76
2005-04-05 08:00:10 51°14.012 2°55.448 2.9 240 8.7 102510 76
2005-04-05 08:00:15 51°14.012 2°55.448 3.7 272 8.7 102510 76
2005-04-05 08:00:21 51°14.012 2°55.448 2.5 222 8.7 102510 76
2005-04-05 08:00:25 51°14.012 2°55.448 1.3 226 8.7 102510 76
2005-04-05 08:00:31 51°14.012 2°55.448 4.2 238 8.7 102510 76
2005-04-05 08:00:35 51°14.012 2°55.448 3.2 254 8.7 102510 76
2005-04-05 08:00:41 51°14.012 2°55.448 3.3 263 8.7 102510 76
2005-04-05 08:00:45 51°14.012 2°55.448 2.5 241 8.7 102510 76
2005-04-05 08:00:51 51°14.012 2°55.448 3.1 249 8.7 102510 76
2005-04-05 08:00:55 51°14.012 2°55.447 2.7 255 8.7 102510 76
2005-04-05 08:00:59 51°14.012 2°55.447 2.2 230 8.7 102510 76
2005-04-05 08:01:05 51°14.012 2°55.447 4 225 8.7 102510 76
2005-04-05 08:01:11 51°14.012 2°55.447 1.8 248 8.7 102510 76
2005-04-05 08:01:15 51°14.012 2°55.447 2.8 262 8.6 102510 76
2005-04-05 08:01:21 51°14.012 2°55.447 1.7 273 8.6 102510 76
2005-04-05 08:01:25 51°14.012 2°55.447 1.6 249 8.6 102510 76
2005-04-05 08:01:31 51°14.011 2°55.447 0.8 248 8.6 102510 76
2005-04-05 08:01:36 51°14.011 2°55.447 1.7 255 8.6 102510 76
2005-04-05 08:01:41 51°14.011 2°55.447 3.1 258 8.6 102510 76
2005-04-05 08:01:45 51°14.011 2°55.447 4.3 270 8.6 102510 76
2005-04-05 08:01:51 51°14.011 2°55.447 3.6 267 8.6 102510 76
2005-04-05 08:01:55 51°14.011 2°55.447 2.3 257 8.6 102510 76
2005-04-05 08:01:59 51°14.011 2°55.447 3.8 265 8.6 102510 76
2005-04-05 08:02:05 51°14.011 2°55.447 2.9 259 8.6 102510 76
2005-04-05 08:02:11 51°14.011 2°55.447 2.6 245 8.6 102510 76
2005-04-05 08:02:15 51°14.011 2°55.447 2.5 243 8.6 102500 76
2005-04-05 08:02:21 51°14.011 2°55.447 2.2 267 8.6 102500 76
2005-04-05 08:02:25 51°14.011 2°55.447 2.3 255 8.6 102510 76
2005-04-05 08:02:30 51°14.011 2°55.447 1.9 243 8.6 102510 76
2005-04-05 08:02:35 51°14.011 2°55.447 1.5 228 8.6 102510 76
2005-04-05 08:02:40 51°14.011 2°55.447 1.2 235 8.6 102510 76
2005-04-05 08:02:45 51°14.011 2°55.447 2.8 273 8.6 102510 76
2005-04-05 08:02:51 51°14.011 2°55.447 1.5 234 8.6 102510 76
2005-04-05 08:02:55 51°14.011 2°55.447 1.2 268 8.6 102510 77
2005-04-05 08:03:00 51°14.011 2°55.447 1.6 253 8.6 102510 77
2005-04-05 08:03:05 51°14.011 2°55.447 1.5 261 8.6 102510 77
2005-04-05 08:03:11 51°14.011 2°55.447 1.1 262 8.6 102510 77
2005-04-05 08:03:15 51°14.011 2°55.447 1.7 263 8.6 102510 77
2005-04-05 08:03:21 51°14.011 2°55.447 1.6 283 8.6 102510 77
2005-04-05 08:03:25 51°14.011 2°55.447 1.4 271 8.6 102510 77
2005-04-05 08:03:31 51°14.011 2°55.447 1.1 265 8.6 102510 77
2005-04-05 08:03:35 51°14.011 2°55.447 0.8 243 8.7 102510 77
2005-04-05 08:03:40 51°14.011 2°55.447 0.5 238 8.7 102510 77
2005-04-05 08:03:45 51°14.011 2°55.447 0.2 237 8.7 102510 77
2005-04-05 08:03:51 51°14.011 2°55.447 0.4 223 8.7 102510 77
2005-04-05 08:03:55 51°14.011 2°55.447 0.3 222 8.7 102510 77
2005-04-05 08:04:01 51°14.011 2°55.447 1.3 234 8.7 102510 77
2005-04-05 08:04:05 51°14.011 2°55.447 1.3 238 8.7 102510 77
2005-04-05 08:04:10 51°14.011 2°55.447 1.5 248 8.7 102510 77
2005-04-05 08:04:15 51°14.011 2°55.447 2.6 240 8.7 102510 77
2005-04-05 08:04:21 51°14.011 2°55.447 2.4 266 8.7 102510 77
2005-04-05 08:04:25 51°14.011 2°55.447 2.6 266 8.7 102510 77
2005-04-05 08:04:31 51°14.011 2°55.447 2.5 271 8.7 102510 77
2005-04-05 08:04:35 51°14.011 2°55.447 2.2 271 8.7 102510 77
2005-04-05 08:04:41 51°14.011 2°55.448 1.7 263 8.7 102510 77
2005-04-05 08:04:45 51°14.011 2°55.447 1.4 257 8.7 102510 77
2005-04-05 08:04:47 51°14.011 2°55.448 2 265 8.7 102510 77
2005-04-05 08:04:56 51°14.011 2°55.447 0.8 262 8.7 102510 77
2005-04-05 08:04:59 51°14.011 2°55.447 1.4 261 8.7 102510 77
2005-04-05 08:05:04 51°14.011 2°55.447 1.6 268 8.7 102510 77
2005-04-05 08:05:11 51°14.011 2°55.447 1.4 247 8.7 102510 77
2005-04-05 08:05:15 51°14.011 2°55.447 1 260 8.8 102510 77
2005-04-05 08:05:21 51°14.011 2°55.447 1.2 253 8.8 102510 77
2005-04-05 08:05:25 51°14.011 2°55.447 1.5 269 8.8 102510 77
2005-04-05 08:05:29 51°14.011 2°55.447 1.2 255 8.8 102510 77
2005-04-05 08:05:36 51°14.011 2°55.447 1 256 8.8 102510 77
2005-04-05 08:05:39 51°14.011 2°55.447 1.2 250 8.8 102510 77
2005-04-05 08:05:45 51°14.011 2°55.447 1 245 8.8 102510 77
2005-04-05 08:05:51 51°14.011 2°55.447 0.4 249 8.8 102510 77
2005-04-05 08:05:55 51°14.011 2°55.447 0.4 249 8.8 102510 77
2005-04-05 08:06:00 51°14.011 2°55.447 0.6 154 8.8 102510 77
2005-04-05 08:06:05 51°14.012 2°55.447 0.2 155 8.8 102510 77
2005-04-05 08:06:11 51°14.012 2°55.448 0.2 160 8.8 102510 77
2005-04-05 08:06:15 51°14.012 2°55.448 0.6 169 8.8 102510 77
2005-04-05 08:06:20 51°14.012 2°55.448 2 206 8.8 102510 77
2005-04-05 08:06:24 51°14.012 2°55.447 1.6 205 8.9 102510 77
2005-04-05 08:06:30 51°14.012 2°55.447 1.3 192 8.9 102510 77
2005-04-05 08:06:35 51°14.012 2°55.447 1.3 216 8.9 102510 77
2005-04-05 08:06:40 51°14.012 2°55.447 1.2 234 8.9 102510 77
2005-04-05 08:06:45 51°14.012 2°55.447 2.4 218 8.9 102510 77
2005-04-05 08:06:48 51°14.012 2°55.447 3.3 250 8.9 102510 77
2005-04-05 08:06:55 51°14.012 2°55.447 1.4 219 8.9 102510 77
2005-04-05 08:06:59 51°14.012 2°55.447 2.3 206 8.9 102510 77
2005-04-05 08:07:04 51°14.012 2°55.447 1.8 242 8.9 102510 77
2005-04-05 08:07:10 51°14.012 2°55.447 1.3 237 8.9 102510 77
2005-04-05 08:07:15 51°14.012 2°55.447 2.5 196 8.9 102510 77
2005-04-05 08:07:20 51°14.012 2°55.447 2.7 234 8.9 102510 77
2005-04-05 08:07:24 51°14.012 2°55.447 1.9 202 8.9 102510 77
2005-04-05 08:07:30 51°14.012 2°55.447 1.6 193 8.9 102510 77
2005-04-05 08:07:34 51°14.012 2°55.447 1.3 225 8.9 102510 76
2005-04-05 08:07:40 51°14.012 2°55.447 1 221 8.9 102510 76
2005-04-05 08:07:44 51°14.012 2°55.447 0.5 209 8.9 102510 76
2005-04-05 08:07:50 51°14.012 2°55.447 0.9 208 8.9 102510 76
2005-04-05 08:07:55 51°14.012 2°55.447 0.9 203 8.9 102510 76
2005-04-05 08:08:00 51°14.012 2°55.448 0.5 203 8.9 102510 76
2005-04-05 08:08:05 51°14.012 2°55.448 0.6 218 9 102510 76
2005-04-05 08:08:10 51°14.012 2°55.448 0.7 208 9 102510 76
2005-04-05 08:08:16 51°14.012 2°55.448 0.5 208 9 102510 76
2005-04-05 08:08:20 51°14.012 2°55.447 0.6 223 9 102510 76
2005-04-05 08:08:24 51°14.012 2°55.448 0.9 214 9 102510 76
2005-04-05 08:08:31 51°14.012 2°55.448 1.9 259 9 102510 76
2005-04-05 08:08:35 51°14.012 2°55.448 2.3 245 9 102510 76
2005-04-05 08:08:40 51°14.012 2°55.447 2 233 9 102510 76
2005-04-05 08:08:44 51°14.012 2°55.448 1.8 218 9 102510 76
2005-04-05 08:08:50 51°14.012 2°55.447 1.5 193 9 102510 76
2005-04-05 08:08:55 51°14.012 2°55.448 2.1 213 9 102510 76
2005-04-05 08:09:00 51°14.012 2°55.448 1.9 230 9 102510 76
2005-04-05 08:09:04 51°14.012 2°55.448 2 236 9 102510 76
2005-04-05 08:09:10 51°14.012 2°55.448 2.2 250 9 102510 76
2005-04-05 08:09:14 51°14.012 2°55.448 2.2 250 9.1 102510 76
2005-04-05 08:09:20 51°14.012 2°55.448 1.8 263 9.1 102510 76
2005-04-05 08:09:26 51°14.012 2°55.448 1.6 234 9.1 102510 76
2005-04-05 08:09:30 51°14.012 2°55.448 1.8 248 9.1 102510 76
2005-04-05 08:09:35 51°14.012 2°55.448 2.4 253 9.1 102520 76
2005-04-05 08:09:40 51°14.012 2°55.448 1.6 249 9.1 102520 76
2005-04-05 08:09:46 51°14.012 2°55.448 1.8 245 9.1 102510 76
2005-04-05 08:09:50 51°14.012 2°55.448 1.6 243 9.1 102510 76
2005-04-05 08:09:55 51°14.013 2°55.448 2.2 264 9.1 102510 76
2005-04-05 08:10:00 51°14.013 2°55.448 2.6 271 9.1 102510 76
2005-04-05 08:10:04 51°14.013 2°55.448 1.2 241 9.1 102510 76
2005-04-05 08:10:10 51°14.013 2°55.448 1.7 238 9.1 102510 76
2005-04-05 08:10:15 51°14.013 2°55.448 1.1 253 9.1 102510 75
2005-04-05 08:10:20 51°14.013 2°55.448 1.3 271 9.1 102510 75
2005-04-05 08:10:24 51°14.013 2°55.448 1.4 258 9.1 102510 75
2005-04-05 08:10:30 51°14.013 2°55.448 1.2 256 9.1 102510 75
2005-04-05 08:10:35 51°14.013 2°55.448 1.5 264 9.1 102510 75
2005-04-05 08:10:40 51°14.013 2°55.448 1.5 261 9.1 102510 75
2005-04-05 08:10:44 51°14.013 2°55.448 1.2 237 9.1 102510 75
2005-04-05 08:10:50 51°14.013 2°55.448 1.5 203 9.1 102510 75
2005-04-05 08:10:55 51°14.013 2°55.448 1.2 274 9.2 102510 75
2005-04-05 08:11:00 51°14.012 2°55.448 0.9 228 9.2 102510 75
2005-04-05 08:11:05 51°14.012 2°55.448 2.1 231 9.2 102510 75
2005-04-05 08:11:10 51°14.012 2°55.448 2.3 226 9.2 102510 75
2005-04-05 08:11:15 51°14.013 2°55.448 1.6 222 9.2 102510 75
2005-04-05 08:11:20 51°14.013 2°55.448 1.5 208 9.2 102510 75
2005-04-05 08:11:26 51°14.013 2°55.448 1.1 206 9.2 102510 75
2005-04-05 08:11:30 51°14.012 2°55.448 1.2 231 9.2 102510 75
2005-04-05 08:11:34 51°14.012 2°55.448 1.4 232 9.2 102510 75
2005-04-05 08:11:40 51°14.012 2°55.448 0.8 231 9.2 102510 75
2005-04-05 08:11:44 51°14.012 2°55.448 1.3 224 9.2 102510 75
2005-04-05 08:11:50 51°14.012 2°55.448 1.1 227 9.2 102510 75
2005-04-05 08:11:55 51°14.012 2°55.448 1.2 253 9.2 102510 75
2005-04-05 08:12:00 51°14.012 2°55.448 1.4 251 9.2 102510 75
2005-04-05 08:12:04 51°14.012 2°55.448 1 248 9.2 102510 75
2005-04-05 08:12:10 51°14.012 2°55.448 0.7 252 9.2 102510 75
2005-04-05 08:12:15 51°14.012 2°55.448 0.4 252 9.2 102510 75
2005-04-05 08:12:20 51°14.012 2°55.447 0.2 252 9.2 102510 75
2005-04-05 08:12:25 51°14.012 2°55.447 0.5 142 9.2 102510 75
2005-04-05 08:12:30 51°14.012 2°55.448 0.7 143 9.2 102510 75
2005-04-05 08:12:35 51°14.012 2°55.447 0.9 288 9.2 102510 75
2005-04-05 08:12:41 51°14.012 2°55.448 1.4 200 9.2 102510 75
2005-04-05 08:12:45 51°14.012 2°55.447 0.8 205 9.3 102510 75
2005-04-05 08:12:51 51°14.012 2°55.447 0.4 150 9.3 102510 75
2005-04-05 08:12:55 51°14.012 2°55.447 0.5 136 9.3 102510 75
2005-04-05 08:13:00 51°14.012 2°55.447 0.1 178 9.3 102510 75
2005-04-05 08:13:05 51°14.012 2°55.447 0.5 178 9.3 102510 75
2005-04-05 08:13:11 51°14.012 2°55.448 0.3 -999 9.3 102510 75
2005-04-05 08:13:15 51°14.012 2°55.448 0.4 178 9.3 102510 75
2005-04-05 08:13:21 51°14.012 2°55.448 0.8 226 9.3 102510 75
2005-04-05 08:13:26 51°14.012 2°55.448 0.7 225 9.3 102510 75
2005-04-05 08:13:31 51°14.012 2°55.448 0.4 232 9.3 102510 75
2005-04-05 08:13:35 51°14.012 2°55.448 0.4 234 9.3 102510 75
2005-04-05 08:13:40 51°14.012 2°55.448 0.4 228 9.3 102510 75
2005-04-05 08:13:46 51°14.012 2°55.448 0.5 213 9.3 102510 75
2005-04-05 08:13:51 51°14.012 2°55.448 0.8 154 9.3 102510 75
2005-04-05 08:13:55 51°14.012 2°55.448 0.5 158 9.4 102510 75
2005-04-05 08:14:00 51°14.012 2°55.448 0.7 209 9.4 102510 75
2005-04-05 08:14:05 51°14.012 2°55.448 1.6 213 9.4 102510 75
2005-04-05 08:14:11 51°14.012 2°55.448 1.4 202 9.4 102510 75
2005-04-05 08:14:15 51°14.012 2°55.448 0.7 202 9.4 102510 75
2005-04-05 08:14:20 51°14.012 2°55.447 1.1 225 9.4 102510 75
2005-04-05 08:14:26 51°14.012 2°55.447 1.3 217 9.4 102510 75
2005-04-05 08:14:31 51°14.012 2°55.448 0.5 214 9.4 102510 75
2005-04-05 08:14:35 51°14.012 2°55.447 1.3 237 9.5 102510 74
2005-04-05 08:14:40 51°14.012 2°55.447 2.5 233 9.5 102510 74
2005-04-05 08:14:45 51°14.012 2°55.447 2.7 242 9.4 102510 74
2005-04-05 08:14:51 51°14.012 2°55.447 3 225 9.4 102510 74
2005-04-05 08:14:56 51°14.012 2°55.447 2.3 219 9.4 102510 74
2005-04-05 08:15:00 51°14.012 2°55.447 1.7 196 9.4 102510 74
2005-04-05 08:15:05 51°14.012 2°55.447 1.1 194 9.4 102510 74
2005-04-05 08:15:10 51°14.012 2°55.447 0.9 185 9.4 102510 74
2005-04-05 08:15:15 51°14.012 2°55.447 1 193 9.4 102510 74
2005-04-05 08:15:21 51°14.012 2°55.447 1.5 203 9.4 102510 74
2005-04-05 08:15:25 51°14.012 2°55.447 1.7 198 9.4 102510 74
2005-04-05 08:15:31 51°14.012 2°55.447 2.3 194 9.4 102510 74
2005-04-05 08:15:36 51°14.012 2°55.447 2.1 195 9.4 102510 74
2005-04-05 08:15:41 51°14.012 2°55.447 1.8 195 9.4 102510 74
2005-04-05 08:15:45 51°14.012 2°55.447 2.4 220 9.4 102510 74
2005-04-05 08:15:51 51°14.012 2°55.447 2.6 258 9.4 102510 74
2005-04-05 08:15:55 51°14.012 2°55.447 2.3 250 9.4 102510 74
2005-04-05 08:16:00 51°14.012 2°55.447 3.9 233 9.4 102510 74
2005-04-05 08:16:05 51°14.011 2°55.447 3.1 219 9.4 102510 74
2005-04-05 08:16:10 51°14.011 2°55.447 2.2 217 9.4 102510 74
2005-04-05 08:16:15 51°14.011 2°55.447 1.8 187 9.4 102510 74
2005-04-05 08:16:21 51°14.011 2°55.447 3.1 219 9.4 102510 74
2005-04-05 08:16:25 51°14.012 2°55.447 4.3 236 9.3 102510 74
2005-04-05 08:16:30 51°14.011 2°55.448 2.1 226 9.3 102510 74
2005-04-05 08:16:35 51°14.011 2°55.448 1 197 9.3 102510 74
2005-04-05 08:16:41 51°14.011 2°55.448 1.7 219 9.3 102510 74
2005-04-05 08:16:46 51°14.011 2°55.448 2.7 226 9.3 102520 74
2005-04-05 08:16:51 51°14.011 2°55.448 1.8 211 9.3 102520 74
2005-04-05 08:16:55 51°14.011 2°55.448 1.7 182 9.4 102510 74
2005-04-05 08:16:59 51°14.011 2°55.448 3.1 215 9.4 102510 74
2005-04-05 08:17:05 51°14.011 2°55.448 1.9 207 9.4 102510 74
2005-04-05 08:17:11 51°14.011 2°55.448 2.5 178 9.4 102510 74
2005-04-05 08:17:15 51°14.011 2°55.448 2.3 236 9.4 102510 74
2005-04-05 08:17:19 51°14.011 2°55.448 2.3 262 9.4 102510 74
2005-04-05 08:17:25 51°14.011 2°55.448 1.9 171 9.4 102510 74
2005-04-05 08:17:31 51°14.011 2°55.448 1.7 196 9.4 102510 74
2005-04-05 08:17:35 51°14.011 2°55.448 2.2 184 9.4 102510 74
2005-04-05 08:17:40 51°14.011 2°55.448 2.5 162 9.4 102510 74
2005-04-05 08:17:45 51°14.011 2°55.448 2.5 215 9.4 102520 74
2005-04-05 08:17:50 51°14.011 2°55.448 1.2 209 9.4 102520 74
2005-04-05 08:17:56 51°14.011 2°55.448 2.1 225 9.3 102510 74
2005-04-05 08:18:01 51°14.011 2°55.448 2.5 217 9.3 102510 74
2005-04-05 08:18:06 51°14.011 2°55.448 1.8 196 9.3 102510 73
2005-04-05 08:18:10 51°14.01 2°55.448 1.2 207 9.3 102510 73
2005-04-05 08:18:15 51°14.011 2°55.448 2.2 208 9.3 102510 73
2005-04-05 08:18:19 51°14.01 2°55.448 1.5 232 9.3 102510 73
2005-04-05 08:18:25 51°14.011 2°55.448 1.2 195 9.2 102520 73
2005-04-05 08:18:30 51°14.011 2°55.448 1.7 209 9.2 102520 73
2005-04-05 08:18:35 51°14.01 2°55.448 2.5 205 9.2 102510 74
2005-04-05 08:18:41 51°14.011 2°55.448 2.6 249 9.2 102510 74
2005-04-05 08:18:45 51°14.011 2°55.448 2.6 209 9.2 102510 74
2005-04-05 08:18:51 51°14.011 2°55.448 2.5 211 9.2 102510 74
2005-04-05 08:18:55 51°14.011 2°55.448 2.6 229 9.2 102510 74
2005-04-05 08:19:00 51°14.011 2°55.448 4.6 230 9.2 102510 74
2005-04-05 08:19:05 51°14.011 2°55.448 5.2 214 9.2 102510 74
2005-04-05 08:19:11 51°14.011 2°55.448 2.5 227 9.2 102510 74
2005-04-05 08:19:15 51°14.011 2°55.448 2 188 9.2 102510 74
2005-04-05 08:19:19 51°14.011 2°55.448 1.8 189 9.2 102510 74
2005-04-05 08:19:25 51°14.011 2°55.448 1.5 228 9.2 102520 74
2005-04-05 08:19:31 51°14.011 2°55.448 1.5 248 9.2 102520 74
2005-04-05 08:19:35 51°14.011 2°55.448 2.1 224 9.2 102510 74
2005-04-05 08:19:41 51°14.011 2°55.448 3.1 227 9.2 102510 74
2005-04-05 08:19:45 51°14.011 2°55.448 2.8 257 9.1 102520 74
2005-04-05 08:19:51 51°14.011 2°55.448 2.4 231 9.1 102520 74
2005-04-05 08:19:55 51°14.011 2°55.448 3.1 234 9.1 102520 74
2005-04-05 08:20:01 51°14.01 2°55.448 2.5 281 9.1 102520 74
2005-04-05 08:20:05 51°14.011 2°55.448 1.7 209 9.1 102520 74
2005-04-05 08:20:11 51°14.011 2°55.448 0.8 201 9.1 102520 74
2005-04-05 08:20:15 51°14.011 2°55.448 1.1 196 9.1 102520 74
2005-04-05 08:20:20 51°14.011 2°55.448 2.1 196 9.1 102520 74
2005-04-05 08:20:25 51°14.011 2°55.448 1.9 139 9.1 102520 74
2005-04-05 08:20:31 51°14.011 2°55.448 1.8 217 9.1 102520 74
2005-04-05 08:20:35 51°14.011 2°55.448 1.3 223 9.1 102510 74
2005-04-05 08:20:41 51°14.011 2°55.448 1.8 240 9.1 102510 74
2005-04-05 08:20:45 51°14.011 2°55.448 1.6 253 9.1 102520 74
2005-04-05 08:20:51 51°14.011 2°55.448 2.3 186 9.1 102520 74
2005-04-05 08:20:55 51°14.011 2°55.448 1.6 168 9.2 102520 74
2005-04-05 08:21:01 51°14.011 2°55.448 0.6 176 9.2 102520 74
2005-04-05 08:21:05 51°14.011 2°55.448 0.3 213 9.2 102520 74
2005-04-05 08:21:11 51°14.011 2°55.448 1 289 9.2 102520 74
2005-04-05 08:21:15 51°14.011 2°55.448 1.2 262 9.2 102520 74
2005-04-05 08:21:19 51°14.011 2°55.448 2 249 9.2 102520 74
2005-04-05 08:21:26 51°14.011 2°55.448 2.3 258 9.2 102520 74
2005-04-05 08:21:31 51°14.011 2°55.448 1.9 235 9.2 102520 74
2005-04-05 08:21:35 51°14.011 2°55.448 2.9 266 9.2 102520 74
2005-04-05 08:21:41 51°14.011 2°55.448 2.7 283 9.2 102520 74
2005-04-05 08:21:45 51°14.011 2°55.448 2.7 274 9.2 102520 74
2005-04-05 08:21:51 51°14.011 2°55.448 2.8 279 9.2 102520 74
2005-04-05 08:21:55 51°14.011 2°55.448 1.9 261 9.3 102520 74
2005-04-05 08:22:00 51°14.011 2°55.448 1.6 267 9.3 102520 74
2005-04-05 08:22:06 51°14.011 2°55.448 1 228 9.3 102520 73
2005-04-05 08:22:11 51°14.011 2°55.448 1.8 232 9.3 102520 73
2005-04-05 08:22:15 51°14.011 2°55.448 2.3 267 9.3 102520 73
2005-04-05 08:22:19 51°14.011 2°55.448 3.7 267 9.3 102520 73
2005-04-05 08:22:26 51°14.011 2°55.448 1.8 257 9.3 102520 73
2005-04-05 08:22:30 51°14.011 2°55.448 1.9 269 9.3 102520 73
2005-04-05 08:22:35 51°14.011 2°55.448 2.1 268 9.4 102520 73
2005-04-05 08:22:41 51°14.011 2°55.448 1.9 260 9.4 102520 73
2005-04-05 08:22:45 51°14.011 2°55.448 2.2 258 9.4 102520 73
2005-04-05 08:22:49 51°14.011 2°55.448 2.3 253 9.4 102520 73
2005-04-05 08:22:56 51°14.011 2°55.448 2.2 257 9.4 102520 73
2005-04-05 08:23:01 51°14.011 2°55.448 2 243 9.4 102520 73
2005-04-05 08:23:04 51°14.011 2°55.448 3 248 9.4 102520 73
2005-04-05 08:23:11 51°14.011 2°55.448 2.7 278 9.4 102520 73
2005-04-05 08:23:15 51°14.011 2°55.448 1.6 275 9.4 102520 73
2005-04-05 08:23:19 51°14.011 2°55.448 2.6 251 9.4 102520 73
2005-04-05 08:23:25 51°14.011 2°55.448 2.3 254 9.4 102520 73
2005-04-05 08:23:31 51°14.011 2°55.448 2.6 263 9.4 102520 73
2005-04-05 08:23:35 51°14.011 2°55.448 2.7 267 9.4 102520 73
2005-04-05 08:23:41 51°14.011 2°55.448 1.3 277 9.4 102520 73
2005-04-05 08:23:45 51°14.011 2°55.448 1.2 278 9.4 102520 73
2005-04-05 08:23:51 51°14.011 2°55.448 1.6 276 9.4 102520 73
2005-04-05 08:23:55 51°14.011 2°55.448 0.7 279 9.4 102520 73
2005-04-05 08:24:01 51°14.011 2°55.448 0.3 278 9.4 102520 73
2005-04-05 08:24:05 51°14.011 2°55.448 0.2 276 9.4 102520 73
2005-04-05 08:24:11 51°14.011 2°55.448 0.3 276 9.4 102520 73
2005-04-05 08:24:15 51°14.011 2°55.448 0.6 282 9.4 102510 73
2005-04-05 08:24:21 51°14.011 2°55.448 1.4 228 9.4 102510 73
2005-04-05 08:24:25 51°14.011 2°55.448 1.6 189 9.5 102520 73
2005-04-05 08:24:31 51°14.011 2°55.448 1.3 268 9.5 102520 73